DW8546 Weather Reports


time (UTC)temp
C
wind
direction
speed
KPH
gust
KPH
rain 1hr
cm
rain 24hr
cm
rain mn
cm
humidity
%
barometer
mb
20260502224519 18 222 1.6 14.5 0.00 0.00 0.00 17 1014.0
20260502223018 18 54 8.0 17.7 0.00 0.00 0.00 17 1014.2
20260502221517 17 23 1.6 20.9 0.00 0.00 0.00 19 1014.3
20260502220015 17 53 11.3 20.9 0.00 0.00 0.00 18 1014.6
20260502214511 17 181 6.4 17.7 0.00 0.00 0.00 19 1014.9
20260502213010 17 127 9.7 22.5 0.00 0.00 0.00 19 1015.1
20260502211509 18 35 3.2 25.7 0.00 0.00 0.00 20 1015.3
20260502210008 17 29 8.0 20.9 0.00 0.00 0.00 19 1015.3
20260502204505 17 310 8.0 20.9 0.00 0.00 0.00 18 1015.5
20260502203002 17 205 8.0 20.9 0.00 0.00 0.00 17 1015.7
20260502201502 17 68 11.3 20.9 0.00 0.00 0.00 16 1015.8
20260502200100 17 18 9.7 20.9 0.00 0.00 0.00 19 1015.9
20260502200002 17 20 9.7 20.9 0.00 0.00 0.00 19 1015.9
20260502194619 16 175 11.3 22.5 0.00 0.00 0.00 19 1016.2
20260502193107 16 349 12.9 25.7 0.00 0.00 0.00 21 1016.4
20260502191601 16 60 12.9 24.1 0.00 0.00 0.00 18 1016.6
20260502190053 16 209 1.6 12.9 0.00 0.00 0.00 19 1016.6
20260502184559 16 227 14.5 27.4 0.00 0.00 0.00 18 1016.7
20260502183050 16 58 11.3 27.4 0.00 0.00 0.00 20 1016.9
20260502181550 16 18 17.7 32.2 0.00 0.00 0.00 22 1017.1
20260502163040 13 169 0.0 6.4 0.00 0.00 0.00 34 1018.3
20260502161536 12 357 0.0 4.8 0.00 0.00 0.00 34 1018.5
20260502151509 7 131 1.6 4.8 0.00 0.00 0.00 47 1019.3
20260502130114 1 162 3.2 8.0 0.00 0.00 0.00 64 1019.8
20260502123121 1 162 1.6 11.3 0.00 0.00 0.00 64 1019.7
20260502121550 1 207 1.6 9.7 0.00 0.00 0.00 63 1019.8
20260502114554 1 162 3.2 12.9 0.00 0.00 0.00 63 1019.7
20260502113047 1 135 3.2 12.9 0.00 0.00 0.00 65 1019.6
20260502111545 1 314 3.2 8.0 0.00 0.00 0.00 64 1019.7
20260502110048 1 269 0.0 4.8 0.00 0.00 0.00 65 1019.8
20260502104541 1 190 0.0 6.4 0.00 0.00 0.00 64 1019.8
20260502103038 1 221 0.0 1.6 0.00 0.00 0.00 64 1019.8
20260502101534 2 44 1.6 6.4 0.00 0.00 0.00 62 1019.9
20260502091525 3 190 1.6 9.7 0.00 0.00 0.00 59 1019.7
20260502071510 4 191 1.6 4.8 0.00 0.00 0.00 56 1020.2
20260502070007 4 190 0.0 6.4 0.00 0.00 0.00 55 1020.2
20260502064505 4 117 0.0 3.2 0.00 0.00 0.00 57 1020.1
20260502063002 4 224 0.0 4.8 0.00 0.00 0.00 56 1020.1
20260502061600 5 190 0.0 0.0 0.00 0.00 0.00 54 1019.9
20260502060114 5 198 0.0 3.2 0.00 0.00 0.00 53 1019.9
20260502054556 5 162 0.0 0.0 0.00 0.00 0.00 52 1019.8
20260502053055 6 134 0.0 0.0 0.00 0.00 0.00 51 1019.7
20260502051552 6 135 0.0 0.0 0.00 0.00 0.00 49 1019.6
20260502050051 6 253 0.0 0.0 0.00 0.00 0.00 48 1019.6
20260502044551 7 153 0.0 6.4 0.00 0.00 0.00 46 1019.4
20260502043057 7 44 0.0 0.0 0.00 0.00 0.00 46 1019.3
20260502041553 7 239 0.0 0.0 0.00 0.00 0.00 43 1019.1
20260502040051 8 238 0.0 0.0 0.00 0.00 0.00 42 1018.8
20260502034549 9 224 0.0 3.2 0.00 0.00 0.00 41 1018.6
20260502033049 9 251 0.0 0.0 0.00 0.00 0.00 42 1018.3
20260502031547 10 326 0.0 0.0 0.00 0.00 0.00 37 1018.0
20260502030047 10 241 0.0 0.0 0.00 0.00 0.00 35 1017.6
20260502024606 12 251 0.0 0.0 0.00 0.00 0.00 32 1017.4
20260502023046 12 229 0.0 3.2 0.00 0.00 0.00 31 1017.3
20260502021545 13 355 0.0 1.6 0.00 0.00 0.00 30 1017.1
20260502020045 13 39 1.6 8.0 0.00 0.00 0.00 27 1017.0
20260502014544 15 271 0.0 4.8 0.00 0.00 0.00 27 1016.9
20260502013043 15 173 3.2 11.3 0.00 0.00 0.00 25 1016.8
20260502011542 16 222 1.6 12.9 0.00 0.00 0.00 24 1016.8
20260502010050 16 2 4.8 12.9 0.00 0.00 0.00 24 1016.8
20260502004554 16 5 1.6 19.3 0.00 0.00 0.00 23 1017.0
20260502003039 17 142 1.6 8.0 0.00 0.00 0.00 22 1017.0
20260502001538 18 37 0.0 8.0 0.00 0.00 0.00 22 1017.2
20260502000035 17 37 0.0 16.1 0.00 0.00 0.00 23 1017.2
20260501234535 17 6 8.0 19.3 0.00 0.00 0.00 22 1017.4
20260501233034 17 238 11.3 20.9 0.00 0.00 0.00 22 1017.4
20260501231532 17 359 3.2 14.5 0.00 0.00 0.00 22 1017.6
20260501230035 17 210 12.9 22.5 0.00 0.00 0.00 21 1017.8